Location: Harbor View
(36.2448°N, 86.5797°W)
Time: 09:17:36
(UTC+00:00)

Cosmos 2219 - Pass Details

Date: 29 October 2020
Orbit: 832 x 862 km, 71.1° (Epoch: 04 December)

Event Time Altitude Azimuth Distance (km) Brightness Sun altitude
Rises 23:10:59 0° 345° (NNW) 3,443 6.4 -4.4°
Reaches altitude 10° 23:13:36 10° 353° (N) 2,504 5.6 -4.9°
Maximum altitude 23:19:01 41° 63° (ENE) 1,233 3.7 -6.0°
Drops below altitude 10° 23:24:23 10° 133° (SE) 2,489 5.3 -7.0°
Sets 23:26:58 0° 140° (SE) 3,419 6.1 -7.5°
